Theta_e
288 282 279 280 282 282 280 279 278 283 290 292 291 293 298 302 304 301 301 309 309 307 309 311 312 320 329 330 329 329 328 328 329 326 325 325 327 327 327 327 327 326 325 325
283 279 284 286 284 282 281 278 279 287 291 290 291 293 298 301 296 301 306 307 306 304 303 304 307 307 309 327 329 328 328 328 328 328 326 325 326 326 328 329 329 329 328 327
281 283 287 285 282 280 282 280 282 284 289 292 291 288 292 295 297 301 302 303 303 303 299 300 301 302 304 305 318 326 328 328 329 329 328 326 327 326 327 329 329 330 329 329
283 287 284 282 283 283 278 285 286 285 286 281 291 281 289 292 293 295 297 298 297 297 298 298 297 298 299 299 305 311 315 321 324 329 327 326 323 323 325 326 328 329 330 330
282 285 284 281 283 287 283 289 287 286 284 287 287 284 287 291 289 290 291 291 292 293 293 294 295 296 298 298 301 306 308 310 314 317 327 326 325 326 326 326 326 327 329 330
285 292 289 287 289 290 292 289 287 287 285 280 285 284 285 289 290 288 288 289 291 291 291 292 293 294 294 297 298 301 304 305 308 311 313 318 321 321 320 321 323 325 327 327
283 285 288 292 288 291 289 284 277 276 277 277 284 280 281 287 292 289 286 286 288 291 291 291 291 291 292 293 296 298 299 299 302 304 306 308 309 311 313 314 315 318 321 318
273 275 284 290 288 287 285 284 278 272 274 277 282 277 280 288 287 288 287 286 286 286 289 289 290 291 291 292 293 295 295 296 298 299 299 302 303 303 303 303 306 306 308 307
277 279 287 289 292 290 286 281 287 279 277 276 278 281 285 288 286 286 285 285 285 285 286 287 289 289 291 291 292 293 294 294 295 296 296 297 298 299 298 298 299 299 301 304
283 278 285 286 290 290 287 288 280 280 273 271 277 279 278 282 285 287 285 285 285 286 286 286 287 288 289 291 291 292 293 293 293 293 294 293 294 294 295 295 295 295 297 299
286 281 281 286 284 283 283 281 283 282 278 274 274 277 286 284 284 286 288 287 286 286 286 286 287 288 289 290 290 290 291 291 292 292 292 291 291 292 292 292 292 292 293 294
285 283 279 282 289 289 287 283 283 277 275 278 278 276 286 284 284 285 289 289 288 288 287 287 288 288 288 289 289 290 290 290 290 290 290 290 290 289 289 289 290 290 290 291
285 278 274 278 282 285 283 285 284 282 280 276 274 276 285 284 282 282 282 285 287 286 286 287 287 287 287 288 288 289 290 290 290 289 289 288 288 288 287 287 288 288 288 288
287 281 277 274 279 282 278 281 282 278 271 278 278 279 282 282 281 281 281 282 283 284 285 286 285 286 286 287 287 287 288 288 288 288 288 287 287 287 287 287 287 287 287 287
283 276 280 281 281 280 277 278 280 277 271 273 278 278 282 283 282 282 282 282 282 282 282 282 282 282 283 284 285 286 286 286 287 286 285 285 285 285 285 286 286 286 285 285
281 274 275 277 280 280 278 277 280 280 278 277 278 277 284 285 284 283 283 283 282 283 283 283 282 281 282 283 282 283 283 283 284 283 282 283 283 283 283 284 284 284 284 285
275 268 266 273 272 272 271 275 276 280 281 278 274 281 283 284 285 284 284 284 284 283 283 282 281 281 281 281 282 281 281 282 281 281 281 281 281 281 281 282 282 282 282 283
270 267 264 265 265 261 275 278 277 279 280 281 282 282 283 283 282 283 285 285 284 283 283 282 281 280 280 280 280 281 281 280 280 280 280 281 281 280 280 280 280 280 280 280
278 271 266 264 255 268 273 275 275 277 277 280 280 281 281 282 282 282 284 284 284 284 283 282 281 280 280 279 280 280 279 280 280 280 280 280 280 280 280 279 278 279 279 279
277 275 271 262 260 259 271 276 278 278 273 279 280 281 281 282 278 280 282 282 282 282 282 281 280 279 279 279 280 280 279 279 278 279 279 280 280 280 279 279 278 279 279 279
264 265 262 261 258 265 273 276 278 269 273 278 279 280 281 279 279 280 281 281 281 281 281 280 280 280 279 279 280 279 278 278 279 279 279 279 279 279 278 278 278 278 278 278
265 262 259 257 259 260 273 276 273 277 277 278 279 279 278 278 279 279 279 280 280 280 280 280 279 279 279 279 280 278 278 278 278 277 276 276 276 278 278 276 276 276 276 275
266 268 265 268 268 274 274 276 277 278 278 278 278 278 278 277 275 277 276 275 276 277 278 276 276 276 276 276 277 276 276 275 274 273 272 271 273 276 276 274 275 274 274 274
269 268 267 268 270 271 274 275 277 277 278 279 279 278 278 275 272 273 272 272 271 269 270 268 270 271 272 271 274 273 272 272 271 269 269 269 271 271 272 277 275 273 273 272
270 269 267 268 269 267 269 271 274 275 275 275 273 274 275 276 275 274 273 272 269 268 266 266 268 268 270 267 268 267 271 272 272 271 270 270 270 272 271 272 272 274 273 275
270 271 270 269 274 273 273 269 269 271 270 269 272 272 271 273 275 273 272 270 269 270 268 268 268 267 269 267 267 268 268 272 271 271 271 272 272 275 275 275 275 279 281 281
Wind_Speed
10 9 17 25 22 17 10 14 12 17 9 10 25 21 12 14 18 14 8 8 6 6 4 7 10 8 11 15 13 15 14 13 11 7 7 6 7 5 6 5 9 9 8 8
8 23 25 13 20 20 14 14 19 10 15 15 13 17 17 13 6 9 8 4 6 5 8 8 8 10 12 13 15 12 14 12 8 7 3 3 4 3 7 7 9 9 9 7
17 9 16 18 17 21 21 21 19 11 12 16 11 6 9 3 8 9 10 6 7 7 6 9 9 7 11 12 4 12 14 13 9 7 3 3 3 3 3 5 6 7 10 8
14 15 18 18 17 21 21 23 14 18 10 12 16 7 6 13 11 7 12 6 6 7 7 9 11 12 9 14 17 7 6 6 6 9 9 7 7 5 4 3 3 3 5 7
5 12 19 22 25 20 13 18 18 12 12 5 20 5 9 13 9 10 8 7 6 6 8 10 9 11 10 12 13 7 7 8 6 4 6 7 4 3 3 3 4 4 5 6
5 3 9 11 10 18 1 2 10 9 6 6 5 4 8 14 13 8 8 9 6 6 9 8 7 12 9 6 11 8 9 9 8 6 7 6 7 5 4 4 3 1 4 4
5 3 2 5 7 11 8 6 3 6 7 3 4 6 3 8 12 13 9 11 6 7 9 7 11 10 10 14 8 9 11 9 9 8 9 8 7 7 6 4 4 3 2 2
3 3 4 2 3 4 7 4 3 3 2 4 6 5 4 7 13 16 14 11 9 8 8 9 8 9 6 5 9 7 11 8 12 10 10 8 8 5 6 6 4 3 4 4
5 3 2 4 3 0 5 4 2 6 2 5 1 3 6 6 11 13 13 9 8 8 7 9 7 10 5 7 10 9 8 10 13 11 7 9 7 9 7 8 6 4 5 5
4 3 4 3 5 3 1 0 3 3 3 5 3 4 5 2 5 7 8 8 8 6 6 7 6 8 4 8 5 6 9 10 9 10 8 10 9 8 7 7 7 8 7 6
4 1 5 2 6 2 4 1 1 5 3 4 4 4 6 3 5 7 8 7 7 7 4 6 5 6 5 5 6 6 7 10 8 9 7 10 7 8 7 7 7 7 7 6
5 4 4 4 4 5 2 2 2 4 1 4 4 4 5 7 7 8 6 7 6 5 3 5 4 5 5 5 6 7 7 10 8 6 9 8 6 4 6 6 5 7 7 5
7 5 3 5 4 3 7 7 4 5 4 6 4 4 5 8 9 7 9 5 5 4 4 4 4 5 4 4 5 5 6 7 7 5 6 5 6 5 6 6 6 5 7 7
2 5 5 3 4 2 7 12 7 5 6 7 8 7 4 6 7 5 6 6 6 5 5 4 4 4 3 3 4 4 5 6 7 5 6 5 5 6 4 6 6 4 6 9
5 7 9 14 10 15 11 12 14 10 4 7 5 5 4 4 5 4 5 5 5 5 4 3 4 4 4 4 4 5 5 5 7 6 6 4 4 5 4 7 6 6 10 8
6 2 4 9 11 15 14 19 13 15 11 10 10 7 4 6 6 4 5 6 5 4 4 5 5 4 5 4 5 4 4 5 6 5 5 4 7 7 7 7 7 9 8 7
4 4 4 4 5 7 11 13 10 5 7 5 4 4 4 7 7 4 3 4 5 5 5 4 4 4 5 5 5 4 4 4 6 5 5 7 7 8 7 7 7 7 7 6
3 4 3 2 5 8 3 5 4 8 8 9 12 6 5 6 4 5 6 5 5 5 4 5 4 4 3 4 5 4 4 4 5 6 6 6 7 7 6 6 6 6 5 6
5 3 5 5 2 4 3 4 5 5 5 5 6 5 5 4 4 6 6 5 4 3 4 3 3 3 4 5 5 5 5 5 5 5 5 4 5 6 5 6 6 5 5 6
5 7 6 4 7 3 4 6 4 3 4 5 4 4 4 1 3 2 3 4 5 6 4 5 4 3 5 3 5 5 5 4 4 4 4 4 4 6 6 5 5 3 4 4
7 7 5 4 4 6 5 4 4 7 3 2 3 3 4 0 1 4 3 4 3 3 4 4 4 4 4 3 4 5 4 3 3 5 4 4 4 4 5 4 3 4 4 5
2 3 1 2 7 4 2 4 2 3 0 1 3 4 6 6 5 5 5 4 4 4 3 3 4 2 2 3 3 3 3 3 4 4 3 3 2 3 3 4 2 3 4 4
4 5 4 5 6 3 3 2 1 1 2 2 4 5 6 7 4 6 5 4 3 3 1 2 2 2 1 1 2 3 2 3 3 3 3 3 3 3 3 4 3 2 3 3
3 2 0 5 5 4 3 2 1 2 2 3 4 5 5 5 4 2 1 2 2 2 2 1 2 2 4 3 2 4 4 4 5 3 1 1 2 2 1 0 1 1 1 1
4 2 3 4 5 4 4 5 3 1 2 2 3 2 4 6 2 2 1 2 2 3 1 2 4 4 6 3 4 3 3 5 4 4 4 2 2 4 3 2 3 3 2 3
6 7 4 5 5 5 5 3 2 3 2 2 3 1 1 2 5 2 2 2 1 2 1 0 2 2 5 4 5 4 3 5 5 4 4 5 4 3 3 3 2 6 10 9
Wind_Direction
186 210 216 205 211 225 217 225 219 241 238 289 223 230 225 184 184 175 234 233 112 82 47 31 45 355 170 163 155 154 157 158 155 154 155 159 174 166 168 171 178 174 177 185
199 221 216 218 213 211 224 231 239 258 258 200 256 239 209 176 174 177 152 143 120 103 55 38 51 29 6 179 170 165 164 158 156 158 145 142 140 159 178 180 179 181 180 183
205 231 188 187 191 200 210 215 231 225 202 215 205 258 149 133 106 103 81 78 83 99 85 55 44 44 17 341 117 173 179 173 165 148 146 156 113 105 150 180 179 185 187 193
222 222 177 188 204 192 213 219 246 225 268 210 197 196 178 163 141 132 129 128 113 99 84 70 47 44 29 9 342 65 78 116 133 161 182 174 189 177 185 166 160 178 184 184
253 184 180 190 205 194 224 189 200 197 232 165 173 193 160 164 139 148 120 108 77 93 85 64 56 55 11 48 326 3 71 74 65 72 154 159 152 111 99 120 178 197 187 181
254 232 191 194 202 189 142 194 206 174 238 178 187 105 157 175 165 147 137 102 98 94 88 78 74 75 19 24 29 346 38 66 59 73 68 93 116 131 121 96 97 180 180 144
336 125 280 129 169 180 191 193 167 203 168 149 133 106 51 332 148 145 146 116 105 84 79 60 59 42 34 20 9 20 19 54 68 72 75 75 74 81 84 81 70 51 136 76
24 0 14 17 225 178 164 262 150 124 84 79 354 55 50 35 74 91 90 93 85 75 75 73 70 72 63 45 32 34 35 26 53 45 52 50 66 72 69 52 72 48 53 51
332 351 47 356 143 107 156 54 255 110 94 86 87 76 96 56 72 88 104 95 81 65 67 82 67 63 31 53 42 34 33 40 44 47 48 57 49 62 73 55 54 56 42 56
296 300 12 336 3 25 93 64 101 27 94 102 53 69 73 47 98 117 107 107 96 90 82 77 69 82 39 64 58 40 49 53 59 47 44 52 42 46 63 71 59 51 40 48
299 305 337 50 18 352 29 86 132 113 74 114 129 79 355 49 138 148 139 141 133 124 122 98 91 74 65 60 73 67 56 56 42 65 58 61 43 46 55 69 68 55 51 46
325 358 47 66 261 256 280 346 96 118 333 53 66 69 13 69 89 111 113 125 131 129 118 109 93 85 70 57 46 63 57 66 44 51 56 62 53 66 83 75 77 73 58 65
325 11 27 354 0 16 22 348 3 71 73 39 86 93 48 68 70 73 106 112 109 117 107 92 86 70 51 47 53 56 68 81 74 54 78 80 71 53 55 63 60 75 94 67
13 6 54 96 73 326 15 5 351 87 73 83 57 112 80 80 91 95 101 120 131 144 126 126 110 88 74 60 71 76 83 80 85 80 81 75 80 77 70 73 69 71 94 78
51 31 20 43 40 70 55 25 30 57 143 89 122 86 84 95 117 131 130 117 121 115 127 134 125 126 126 107 88 75 74 83 98 88 94 96 86 85 80 74 79 80 63 67
346 32 0 41 17 45 52 24 30 57 57 67 87 62 52 83 84 100 130 135 131 135 155 148 133 135 112 106 93 73 75 71 79 91 84 81 71 64 60 66 60 61 68 67
54 103 46 1 359 342 32 347 357 19 44 117 97 131 115 81 74 68 102 132 137 136 145 137 148 139 119 115 109 91 82 94 94 93 69 66 66 62 50 48 52 60 64 70
66 79 88 198 2 47 259 256 276 64 40 43 90 96 87 104 90 46 26 84 92 115 131 132 138 118 119 93 93 100 89 75 82 78 77 72 75 72 65 64 59 54 59 61
31 101 47 86 75 255 339 10 43 46 21 16 80 84 96 122 103 30 21 40 52 53 89 119 128 130 119 111 112 100 83 81 73 82 86 89 100 94 88 80 76 63 69 65
28 51 100 46 86 109 282 343 2 298 43 13 119 136 144 333 57 305 20 43 45 49 63 96 96 81 93 105 115 103 101 96 100 102 103 104 107 109 106 109 103 80 86 96
344 1 80 33 97 290 262 305 327 64 235 23 121 133 139 221 185 131 91 53 45 46 85 93 100 129 141 140 124 112 118 129 127 106 103 102 102 107 113 112 104 120 107 96
151 90 310 62 64 344 324 328 127 211 250 43 90 100 102 119 115 118 123 130 127 122 108 120 124 149 170 161 144 149 171 146 127 120 105 106 110 126 128 118 76 87 113 121
14 169 189 157 207 252 275 27 73 140 117 78 107 124 132 133 168 165 166 164 170 168 145 355 153 162 284 255 181 175 235 133 126 117 138 142 123 113 121 133 149 131 141 146
301 154 164 55 296 247 265 293 344 17 86 62 107 137 151 141 164 155 186 193 187 228 211 234 128 214 259 270 248 207 173 141 128 133 167 167 148 138 132 152 119 108 154 179
199 110 195 274 286 313 280 241 240 243 45 60 33 100 165 132 173 173 223 261 238 221 218 175 190 212 239 245 258 263 198 154 172 170 172 200 193 193 190 197 182 194 232 191
184 186 149 217 216 156 236 245 223 151 203 225 142 76 352 133 169 159 249 270 324 315 287 247 249 255 267 250 246 247 207 176 172 191 197 197 180 206 200 196 235 249 243 243